Tracking 29892 objects as of 21-Nov-2024
HD Live streaming from Space Station
objects crossing your sky now

METEOR 2-5 DEB

Track METEOR 2-5 DEB now!
10-day predictions


NORAD ID: 38271
Int'l Code: 1979-095BR
Perigee: 780.4 km
Apogee: 819.6 km
Inclination: 81.2 °
Period: 100.7 minutes
Semi major axis: 7171 km
RCS: 0.0002 m2 (small)
Launch date: October 31, 1979
Source: Commonwealth of Independent States (former USSR) (CIS)
Launch site: PLESETSK MISSILE AND SPACE COMPLEX (PKMTR)

Note: This is SATELLITE DEBRIS
Your satellite tracking list
Your tracking list is empty




NASA's NSSDC Master Catalog

Two Line Element Set (TLE):
1 38271U 79095BR  24323.37972200  .00006965  00000-0  27021-2 0  9995
2 38271  81.2070   0.1104 0027327 176.6256 183.5115 14.29657017677467
Source of the keplerian elements: AFSPC